Weather History for KCDW - November, 2014

Change the Weather History Date:

Friday, November 7, 2014

  Actual Average Record
Temperature  
Mean Temperature 45 °F -  
Max Temperature 51 °F 54 °F 72 °F (1978)
Min Temperature 37 °F 34 °F 20 °F (1962)
Degree Days  
Heating Degree Days 20    
Moisture  
Dew Point 34 °F    
Average Humidity 65    
Maximum Humidity 93    
Minimum Humidity 49    
Precipitation  
Precipitation 0.00 in - - ()
Sea Level Pressure  
Sea Level Pressure 29.71 in    
Wind  
Wind Speed 7 mph (NW)    
Max Wind Speed 18 mph    
Max Gust Speed 30 mph    
Visibility 10 miles    
Events      
Averages and records for this station are not official NWS values.
T = Trace of Precipitation, MM = Missing Value Source: NWS Daily Summary

Daily Weather History Graph

Daily Weather History Graph

Search for Another Location

Airport or City:

Trip Planner

Search our weather history database for the weather conditions in past years. The results will help you decide how hot, cold, wet, or windy it might be!

Date:

Astronomy

Nov. 07, 2014 Rise Set
Actual Time 6:34 AM EST 4:46 PM EST
Civil Twilight 6:05 AM EST 5:15 PM EST
Nautical Twilight 5:33 AM EST 5:47 PM EST
Astronomical Twilight 5:01 AM EST 6:20 PM EST
Moon 5:36 PM EST (11/7) 7:07 AM EST (11/7)
Length of Visible Light 11h 09m
Length of Day
10h 11m
Full, 99% of the Moon is Illuminated
Nov 7
Full
Nov 14
Last Quarter
Nov 22
New
Nov 29
First Quarter
Dec 6
Full

Hourly Weather History & Observations

Time (EST) Temp. Windchill Dew Point Humidity Pressure Visibility Wind Dir Wind Speed Gust Speed Precip Events Conditions
12:53 AM 46.0 °F - 44.1 °F 93% 29.62 in 7.0 mi Calm Calm - N/A   Overcast
1:53 AM 46.0 °F 44.8 °F 43.0 °F 89% 29.61 in 6.0 mi SW 3.5 mph - N/A   Overcast
2:53 AM 46.0 °F 43.9 °F 41.0 °F 83% 29.61 in 10.0 mi West 4.6 mph - N/A   Mostly Cloudy
3:53 AM 46.0 °F 42.5 °F 39.0 °F 76% 29.62 in 10.0 mi NW 6.9 mph - N/A   Overcast
4:10 AM 46.9 °F - 37.9 °F 71% 29.60 in 10.0 mi NNW 6.9 mph - N/A   Overcast
4:45 AM 46.0 °F 42.5 °F 36.0 °F 68% 29.61 in 10.0 mi NW 6.9 mph - N/A   Overcast
4:53 AM 46.0 °F 41.9 °F 36.0 °F 68% 29.63 in 10.0 mi NNW 8.1 mph - N/A   Overcast
5:37 AM 45.0 °F 41.8 °F 35.1 °F 68% 29.61 in 10.0 mi NW 5.8 mph - N/A   Overcast
5:53 AM 45.0 °F 43.5 °F 35.1 °F 68% 29.63 in 10.0 mi NW 3.5 mph - N/A   Overcast
6:31 AM 43.0 °F 40.3 °F 35.1 °F 74% 29.62 in 10.0 mi NW 4.6 mph - N/A   Scattered Clouds
6:53 AM 42.1 °F - 36.0 °F 79% 29.65 in 10.0 mi Calm Calm - N/A   Clear
7:53 AM 46.0 °F 41.4 °F 35.1 °F 66% 29.67 in 10.0 mi NW 9.2 mph 20.7 mph N/A   Scattered Clouds
8:53 AM 46.9 °F - 35.1 °F 63% 29.67 in 10.0 mi NW 6.9 mph - N/A   Overcast
9:53 AM 48.9 °F - 34.0 °F 56% 29.68 in 10.0 mi NW 16.1 mph 23.0 mph N/A   Mostly Cloudy
10:53 AM 50.0 °F - 33.1 °F 52% 29.68 in 10.0 mi NW 13.8 mph 20.7 mph N/A   Partly Cloudy
11:53 AM 51.1 °F - 33.1 °F 50% 29.67 in 10.0 mi NW 11.5 mph 21.9 mph N/A   Mostly Cloudy
12:53 PM 50.0 °F - 32.0 °F 50% 29.67 in 10.0 mi NNW 18.4 mph 29.9 mph N/A   Overcast
1:53 PM 46.9 °F - 34.0 °F 61% 29.71 in 10.0 mi NW 15.0 mph 26.5 mph 0.00 in   Overcast
2:53 PM 48.0 °F - 32.0 °F 54% 29.74 in 10.0 mi NNW 13.8 mph 24.2 mph N/A   Overcast
3:53 PM 45.0 °F 37.6 °F 30.0 °F 56% 29.78 in 10.0 mi NW 17.3 mph 29.9 mph N/A   Overcast
4:53 PM 44.1 °F 40.8 °F 30.0 °F 58% 29.80 in 10.0 mi NW 5.8 mph 19.6 mph N/A   Clear
5:53 PM 44.1 °F 36.5 °F 26.1 °F 49% 29.85 in 10.0 mi NNW 17.3 mph 28.8 mph N/A   Partly Cloudy
6:53 PM 42.1 °F 34.5 °F 27.0 °F 55% 29.88 in 10.0 mi WNW 15.0 mph 24.2 mph N/A   Clear
7:53 PM 39.9 °F 31.8 °F 25.0 °F 55% 29.91 in 10.0 mi NW 15.0 mph 27.6 mph N/A   Clear
8:53 PM 39.0 °F 34.0 °F 25.0 °F 57% 29.94 in 10.0 mi West 6.9 mph - N/A   Clear
11:53 PM 37.0 °F 31.6 °F 24.1 °F 59% 29.98 in 10.0 mi Variable 6.9 mph - N/A   Clear